Theta_e
355 352 353 351 350 346 341 336 315 325 324 315 316 320 316 331 331 327 326 329 326 333 332 336 334 331 330 328 329 331 332 321 324 310 307 332 346 349 351 352 355 355 355 356 358 358 360 362 364 364 365 365 365 365 365 364 363 363 363 363 363 364 364 364 364 363 364 364 364 363 363 363 363 362 362 363 362 362 361 361 361 362 362 361 360 359 360 360 362 362 363 364 364 364 361 363 360
351 350 351 351 345 343 332 340 320 317 319 315 317 324 322 328 328 325 324 325 331 333 336 335 336 339 336 335 335 332 331 334 335 334 338 344 348 348 354 354 355 354 356 357 358 358 359 362 365 364 365 366 365 365 365 364 363 363 363 363 364 363 364 364 364 364 364 364 363 362 362 362 362 362 361 362 362 361 362 362 361 362 360 360 359 359 360 361 363 363 362 363 365 364 362 361 360
347 348 347 347 346 342 340 337 314 316 313 310 316 322 328 323 323 327 328 331 335 335 337 337 337 336 334 334 328 327 322 338 338 340 339 347 342 346 354 356 356 356 357 357 358 358 359 361 365 365 365 365 364 365 365 364 363 363 363 364 364 363 363 364 364 364 363 363 362 362 362 362 362 363 363 363 362 361 361 360 359 361 360 358 356 359 359 362 363 361 362 362 364 365 363 363 361
346 346 343 342 333 343 328 326 320 316 312 313 313 325 325 324 324 327 331 335 334 334 336 333 331 336 332 326 328 334 331 332 340 339 338 342 344 351 354 355 358 357 357 357 357 358 359 362 365 366 365 365 364 365 365 364 364 363 364 363 363 363 363 363 363 363 363 362 363 363 363 363 363 362 362 361 360 359 359 359 359 359 355 355 358 362 362 363 362 362 362 363 363 363 363 363 363
347 347 350 343 335 325 326 323 321 319 311 316 312 324 327 329 328 330 334 337 337 337 333 334 330 336 336 332 333 326 329 339 340 344 342 346 352 353 355 356 356 356 355 356 357 358 360 365 365 365 364 364 365 365 364 364 364 364 364 364 363 363 363 363 363 363 362 362 362 362 362 362 362 362 361 360 360 359 360 360 360 359 359 359 359 361 362 361 362 363 362 362 363 363 362 362 362
348 347 353 346 331 341 332 319 318 317 322 325 319 322 329 332 329 332 332 337 338 337 336 334 329 329 329 332 337 331 338 330 341 343 345 346 353 355 355 356 355 354 355 356 357 358 361 365 365 365 364 365 365 364 364 364 364 364 364 362 363 363 363 363 363 363 361 362 361 361 362 361 362 363 363 361 362 361 361 360 361 361 362 361 361 362 362 362 362 364 363 362 361 361 362 362 361
341 343 348 344 337 338 319 317 316 318 324 329 326 327 329 333 332 331 331 333 335 336 336 331 333 332 327 334 338 342 346 345 342 343 348 350 354 354 355 354 353 353 354 356 358 360 362 365 365 365 365 365 364 364 364 365 365 364 364 363 362 363 363 363 363 362 361 360 361 362 362 362 362 361 362 362 361 362 362 361 361 362 362 361 361 361 363 362 362 363 363 362 362 363 363 362 363
353 342 339 328 324 327 318 319 319 322 323 330 332 331 333 334 331 331 331 329 327 328 332 334 334 330 328 339 328 341 346 348 346 350 351 352 353 353 354 353 352 353 355 357 358 360 366 365 365 365 365 365 365 365 365 365 364 364 364 363 363 361 361 362 362 361 362 360 360 363 363 362 361 361 361 361 362 364 363 362 362 362 362 361 361 361 363 362 363 363 363 363 363 363 363 363 364
348 342 342 329 321 325 319 318 320 328 327 330 331 337 338 337 336 333 331 336 333 332 330 332 332 325 329 333 332 341 343 347 350 352 352 352 352 353 353 353 353 353 355 357 359 362 363 365 365 365 365 365 365 365 365 365 364 364 363 363 363 362 362 362 362 360 360 361 361 361 361 362 363 361 361 362 361 362 362 362 362 360 361 359 360 360 362 363 363 363 362 362 362 363 364 363 364
345 343 328 326 326 316 318 318 317 323 325 329 330 333 334 335 333 337 334 329 332 332 333 337 336 329 333 329 334 339 341 348 350 349 351 352 352 352 352 353 354 354 355 357 360 362 361 365 365 365 365 365 365 364 364 364 363 363 362 362 362 361 360 360 360 359 361 361 362 361 362 362 361 362 363 363 363 363 362 362 361 360 360 361 360 359 362 362 363 361 362 362 363 363 363 363 363
332 340 338 323 318 316 315 317 321 324 326 329 330 335 336 336 336 334 334 332 338 331 333 336 331 331 332 332 334 345 348 348 347 346 350 351 352 351 351 354 355 356 356 358 360 361 361 361 366 365 365 365 365 364 363 362 361 362 362 362 361 360 361 362 361 362 361 361 363 362 363 361 361 362 363 361 362 363 363 363 361 360 361 361 360 361 362 361 362 362 362 362 362 363 363 364 363
330 329 330 318 316 314 318 319 321 323 327 328 326 334 338 336 338 329 330 329 330 330 330 334 329 335 330 331 333 342 346 347 347 349 350 351 350 352 353 354 356 357 358 359 360 359 360 361 363 366 365 365 364 364 363 362 360 362 362 363 361 362 360 360 363 363 362 362 362 362 362 362 363 362 363 363 362 363 363 363 363 362 361 360 360 361 361 361 361 362 362 362 364 364 362 363 362
329 331 323 320 320 321 322 321 321 323 323 325 327 333 341 334 334 334 334 332 331 330 332 336 337 335 326 330 338 341 342 346 348 350 350 350 350 352 354 354 356 356 357 359 358 359 360 360 362 362 363 364 365 364 364 362 361 362 361 362 362 362 362 363 364 363 363 362 362 362 362 362 362 362 363 363 363 363 363 363 362 362 360 359 361 360 361 360 361 362 363 362 363 362 362 363 362
331 330 327 317 327 323 320 320 323 319 321 327 332 336 338 335 336 336 338 332 332 329 335 338 336 335 330 332 333 336 341 346 348 350 351 350 351 352 352 353 354 355 357 357 357 359 360 360 361 361 360 360 360 363 362 362 363 362 362 361 362 362 363 363 362 362 362 363 363 361 362 363 363 363 363 362 362 363 363 363 363 363 362 362 362 362 362 361 361 362 363 363 363 362 362 363 361
333 340 329 321 318 323 324 318 321 322 320 328 330 335 337 338 339 336 337 331 332 339 338 341 337 331 324 328 328 335 341 346 349 350 349 350 351 351 351 352 353 354 355 357 358 359 359 360 360 359 360 359 358 358 358 358 363 362 363 362 363 363 363 363 363 363 363 363 362 361 362 362 362 362 363 363 363 364 363 362 363 362 362 362 362 363 363 363 363 363 363 363 364 364 364 362 362
342 336 329 318 316 320 323 321 323 322 322 329 334 338 335 337 341 337 337 339 338 345 341 330 337 333 333 331 334 340 344 347 349 349 349 348 349 349 349 347 348 350 353 355 357 358 359 359 358 358 358 358 358 358 358 358 362 362 363 364 364 364 363 364 364 363 363 363 362 362 362 362 361 360 364 361 365 365 363 362 364 363 363 363 363 363 364 364 364 364 365 365 365 365 364 364 363
344 340 321 319 314 321 324 324 323 317 327 329 335 336 331 332 339 342 346 343 337 335 335 336 336 339 335 336 340 343 346 348 349 348 347 346 345 343 341 340 343 347 351 353 354 356 358 358 357 357 357 357 358 358 357 358 361 363 362 362 364 364 363 363 363 363 364 363 362 362 362 359 358 358 359 359 363 361 363 363 364 364 363 363 363 363 365 364 364 364 364 364 364 364 363 363 362
340 325 319 314 318 319 327 324 326 331 328 329 332 336 334 330 335 338 342 339 341 335 333 334 337 336 340 342 344 345 346 345 346 345 344 341 340 336 334 337 342 343 347 350 354 356 356 356 356 357 356 357 357 359 360 360 360 362 358 359 360 360 361 362 362 361 365 360 365 361 358 361 357 357 360 363 361 362 360 364 364 364 363 363 363 364 364 363 363 363 363 363 363 363 364 355 359
328 324 321 314 322 326 331 332 332 330 330 332 335 341 336 334 336 338 332 330 332 328 329 332 331 335 340 342 343 344 345 344 344 344 341 338 335 332 333 337 340 343 345 349 352 355 355 355 357 357 356 356 357 358 360 361 358 357 357 358 361 363 361 360 360 360 356 356 356 358 359 358 358 358 358 362 363 363 362 364 364 364 365 365 364 364 363 363 363 362 362 362 361 362 358 355 355
334 327 319 319 329 331 335 335 333 338 336 334 336 341 335 338 340 343 331 329 331 326 326 328 329 331 336 339 341 343 343 343 343 343 340 336 334 333 335 337 339 343 347 349 351 354 354 355 356 356 356 356 355 356 358 358 357 356 357 358 358 358 358 360 357 357 356 357 357 357 358 359 358 355 361 362 363 358 359 364 366 365 365 365 364 366 364 362 361 361 360 361 366 362 356 356 357
336 330 321 322 330 330 335 337 338 339 340 338 337 340 337 340 338 340 333 330 328 329 331 329 329 332 335 338 340 341 341 341 342 342 339 335 334 335 337 339 341 344 348 351 353 353 354 355 355 356 356 356 355 358 357 357 357 356 356 357 357 356 356 356 357 356 356 357 357 357 358 359 357 356 356 356 356 357 356 356 356 356 355 356 364 353 354 357 358 354 355 360 355 357 356 357 355
332 328 330 329 332 332 336 338 340 339 341 339 339 335 334 339 337 338 335 326 324 329 332 333 334 335 336 336 339 341 340 340 341 341 338 334 333 334 337 341 344 346 350 350 351 353 354 355 356 356 356 356 356 356 356 359 360 356 356 356 357 356 357 356 355 355 356 356 356 359 359 356 357 356 353 354 354 354 353 352 352 353 354 355 362 353 354 355 354 355 355 355 356 358 358 357 356
322 328 331 331 334 334 338 339 340 341 339 337 336 341 342 338 332 339 337 331 334 339 337 336 337 337 338 340 340 339 339 340 340 340 339 335 334 335 339 342 343 345 349 350 352 353 355 355 356 356 355 355 356 357 358 359 356 357 357 357 356 355 356 355 354 354 354 355 356 359 356 355 355 354 354 352 352 354 353 354 354 356 354 355 359 355 355 356 354 353 354 355 356 358 358 357 356
328 323 329 330 335 335 338 338 341 340 338 337 341 344 339 337 331 339 335 342 342 343 337 338 339 339 340 339 340 339 339 340 340 341 340 337 336 337 341 342 345 348 348 350 351 353 355 355 355 356 355 355 355 357 357 356 355 357 358 362 358 360 358 354 354 354 355 354 357 360 360 355 355 353 351 351 350 351 351 353 353 354 354 355 358 356 355 354 354 354 352 351 351 353 355 356 356
326 325 329 330 336 338 338 338 339 339 340 342 341 337 336 338 335 337 335 339 341 341 338 339 339 339 339 339 339 339 339 340 340 341 341 339 339 341 343 344 346 347 347 349 351 352 354 356 356 355 357 357 356 357 356 355 355 357 359 357 355 364 355 354 353 353 352 354 356 362 361 356 355 353 350 350 348 348 351 352 353 353 354 353 355 354 355 353 353 353 352 351 350 350 352 352 350
329 327 329 330 336 338 338 338 338 340 339 341 337 336 339 339 340 333 337 339 342 341 338 339 339 338 338 338 339 339 339 339 340 339 339 339 340 341 342 344 346 346 348 349 350 351 354 356 355 355 357 356 357 357 356 356 355 355 357 355 356 361 353 354 353 351 352 353 353 356 360 356 355 352 350 349 347 348 350 351 352 351 350 351 354 351 354 354 353 352 352 352 353 353 354 351 353
331 329 330 332 336 337 338 335 338 339 338 340 335 335 336 342 339 326 339 340 341 338 336 338 338 336 337 338 338 338 338 338 338 339 338 339 341 341 342 344 345 347 348 348 350 351 355 355 355 356 356 360 356 356 355 355 356 355 357 355 358 354 353 355 354 352 352 354 357 360 358 359 355 352 350 349 348 348 349 349 349 350 350 351 353 352 354 354 354 354 353 354 356 355 355 353 355
329 329 331 333 336 336 336 338 337 338 335 341 338 335 339 340 336 329 334 339 341 336 334 334 336 335 336 337 337 338 337 338 338 337 336 338 339 342 342 342 344 347 347 348 350 352 354 355 355 355 355 357 355 355 357 354 354 355 357 356 355 351 355 352 351 351 356 354 358 357 355 356 358 352 350 350 349 349 348 348 349 350 349 351 354 354 355 358 358 358 360 361 359 356 354 352 355
328 333 327 328 329 327 329 332 335 337 334 342 341 333 331 329 326 335 339 345 340 338 333 333 334 335 336 337 337 337 337 337 336 335 338 340 342 344 343 344 345 346 349 350 351 353 353 355 355 354 355 356 352 353 354 353 353 355 356 355 355 353 354 352 351 352 352 355 357 357 355 357 358 353 351 351 358 351 350 348 351 354 352 354 356 360 359 357 357 356 352 358 356 355 353 351 357
331 331 327 323 323 324 331 332 336 336 337 341 337 316 322 326 332 335 342 339 340 339 337 333 333 334 335 335 336 336 337 336 335 336 340 341 343 344 344 345 346 347 348 350 352 352 355 357 356 354 354 354 352 352 353 351 352 353 357 353 357 354 352 351 354 352 356 358 357 353 354 357 355 355 354 354 354 353 353 351 351 353 355 359 359 358 354 353 353 353 354 353 359 356 349 349 350
322 327 328 319 317 316 327 329 333 333 339 338 335 314 320 326 333 338 342 341 335 334 332 332 331 333 335 335 335 334 335 336 336 338 340 342 343 345 345 346 345 344 348 350 351 352 355 355 355 354 356 354 355 351 353 351 352 352 353 353 353 352 351 351 352 354 358 356 356 352 353 356 354 355 357 356 353 352 354 353 354 354 357 360 359 361 355 355 356 355 358 354 354 352 352 352 353
324 316 311 318 316 318 327 332 334 327 334 339 330 313 321 325 332 339 339 340 336 333 333 334 331 333 334 334 333 333 334 336 337 339 341 342 342 344 345 345 345 344 348 350 351 352 353 354 357 355 356 353 353 352 353 352 354 353 353 357 352 352 351 351 354 357 358 359 358 353 353 356 354 355 358 360 356 354 354 354 355 358 360 358 357 360 363 354 355 357 359 357 351 351 355 348 350
314 307 310 313 316 318 321 329 334 334 333 335 331 316 322 324 334 337 339 337 337 333 332 330 331 332 333 333 333 333 334 333 336 338 340 341 341 343 345 345 343 343 348 349 349 350 351 354 358 355 355 353 352 353 354 353 353 352 354 353 351 352 351 353 356 359 361 361 358 355 355 358 355 356 360 363 358 357 354 356 357 359 363 359 357 359 356 362 353 355 355 361 355 351 349 348 345
300 303 306 316 315 318 317 330 333 333 331 326 331 322 325 329 333 336 337 337 334 332 333 332 333 331 332 332 332 332 332 331 334 336 338 339 340 342 344 348 343 342 345 346 350 350 351 352 353 354 353 353 353 353 352 352 352 353 353 354 357 353 353 356 357 359 360 361 361 358 358 361 360 361 363 363 357 357 355 356 356 358 360 359 358 356 353 356 354 355 351 354 356 350 348 347 346
299 300 305 311 318 320 320 320 328 330 330 325 325 324 326 330 335 336 337 336 333 332 331 332 333 330 331 331 331 331 331 330 333 336 337 338 339 341 342 343 342 341 342 347 349 350 350 351 352 354 352 352 352 352 354 353 351 352 352 353 352 353 354 355 357 357 359 361 362 362 362 364 366 363 364 364 359 361 357 357 357 360 361 357 356 356 353 357 359 354 354 355 355 354 351 349 348
303 304 305 314 314 316 318 325 331 330 325 322 322 320 325 328 332 334 336 336 333 333 335 333 334 330 331 331 330 330 330 330 333 336 336 336 338 339 340 342 342 341 344 348 349 348 348 350 350 351 350 351 352 354 354 350 350 350 347 349 350 352 353 355 355 356 358 360 363 365 364 363 364 364 360 359 359 356 356 357 358 361 359 356 355 354 352 351 352 353 354 360 355 356 356 352 347
303 303 305 314 315 317 324 328 330 331 324 322 322 324 326 329 331 333 335 335 334 332 331 331 333 332 329 329 328 329 328 330 332 335 333 335 336 338 340 340 339 341 344 346 345 346 348 349 349 347 350 352 352 351 348 348 347 346 346 347 347 350 351 353 354 354 356 360 364 364 364 363 363 364 362 359 358 365 358 357 357 358 359 359 357 355 356 356 357 361 360 358 357 349 350 350 347
301 300 301 305 316 314 325 326 329 329 322 319 323 324 325 328 331 333 335 333 331 332 331 332 332 332 330 327 327 328 329 331 332 332 332 334 335 338 338 338 340 340 343 344 344 346 347 348 348 348 351 351 351 350 349 348 349 346 345 345 348 349 352 351 351 353 356 362 363 363 364 364 363 362 363 360 361 359 357 358 357 358 358 356 358 363 362 369 358 355 353 349 355 353 346 348 346
301 299 299 307 313 322 327 327 329 327 323 317 324 321 323 327 330 333 333 333 333 335 335 332 332 331 330 327 327 328 328 328 330 331 331 333 335 336 336 336 339 342 342 343 344 345 346 347 348 350 350 350 351 353 349 348 351 352 348 348 349 350 354 354 352 356 360 361 362 363 364 363 363 362 363 364 361 361 358 357 358 357 359 363 357 356 357 355 357 355 354 351 348 351 355 354 346
297 297 301 309 318 317 312 324 326 325 322 319 322 320 321 326 330 332 333 334 335 337 336 335 335 332 330 330 328 328 327 327 328 328 330 332 334 334 334 335 338 342 342 342 344 345 346 348 349 350 350 350 351 355 353 350 352 352 350 350 351 352 351 356 355 356 359 359 359 362 362 362 363 362 362 364 363 361 360 358 357 356 358 361 356 354 355 355 354 356 355 358 352 343 344 341 355
298 299 302 315 318 318 319 320 324 324 325 326 321 317 316 322 322 325 331 336 335 338 337 336 339 337 339 339 338 331 328 327 327 328 329 332 332 333 333 335 338 340 341 341 344 345 346 347 349 350 350 350 351 357 354 351 353 351 349 350 353 352 353 352 350 353 356 358 358 358 361 362 363 361 362 363 363 360 359 358 355 354 359 359 356 353 354 355 356 356 353 357 349 345 346 345 347
295 299 310 319 320 318 320 322 319 315 315 321 318 305 306 317 323 325 329 331 331 336 333 333 333 337 337 336 336 341 333 329 328 328 329 332 332 333 334 336 337 339 340 341 344 345 346 347 349 350 350 350 350 353 354 352 351 347 346 345 344 344 344 345 346 349 352 355 355 358 362 362 363 361 361 362 362 362 359 358 356 357 358 359 357 354 354 356 354 354 355 355 349 350 348 343 343
293 295 313 320 318 318 320 319 317 309 307 317 321 306 303 316 318 323 328 328 328 334 333 335 336 334 333 334 336 338 336 329 329 330 330 331 332 333 334 335 336 337 339 341 343 344 346 347 348 349 350 350 351 351 352 354 347 347 346 345 345 344 343 344 347 351 353 355 356 357 360 361 362 361 360 361 362 363 360 359 358 359 359 358 361 354 354 354 355 355 357 355 354 362 349 342 344
293 298 316 319 318 317 318 318 317 313 319 320 320 313 307 307 315 322 327 326 327 329 331 333 334 334 334 334 337 337 339 330 329 329 330 332 333 333 334 335 336 337 339 340 341 344 344 346 348 348 350 352 351 351 350 353 348 348 345 344 345 344 344 344 347 349 353 355 354 356 357 359 359 360 360 360 362 363 361 359 358 358 358 356 360 355 352 355 357 360 358 356 359 356 349 346 346
295 301 312 318 319 319 319 317 312 313 314 309 314 316 306 305 314 322 324 321 324 325 328 331 334 335 336 337 338 337 339 334 330 330 330 331 333 334 335 335 336 338 338 338 339 344 344 347 348 348 349 351 350 349 350 353 351 349 347 346 346 347 346 347 350 351 352 354 351 353 354 356 356 358 360 361 362 362 364 360 359 358 358 357 363 361 358 357 357 356 355 355 352 354 354 354 349
302 304 307 317 321 321 319 315 312 311 307 302 309 313 303 300 310 315 321 321 321 323 328 331 334 334 335 337 338 339 338 339 334 332 331 332 334 335 336 337 337 337 338 340 340 345 344 346 348 347 347 350 350 347 352 352 351 352 347 346 346 348 351 350 349 349 348 350 349 351 352 353 354 357 358 360 362 362 363 362 362 361 358 356 363 358 357 355 357 357 357 356 356 355 356 354 347
303 305 303 303 317 317 317 315 311 305 300 303 311 313 308 298 310 314 315 318 322 324 327 332 334 335 337 338 337 339 338 339 339 333 332 332 334 336 336 336 337 338 338 339 341 345 344 345 349 346 346 349 349 347 352 351 351 350 349 347 346 347 348 348 345 346 348 348 347 349 350 352 354 356 357 359 361 363 362 364 363 360 359 362 363 357 355 356 358 359 358 360 358 355 353 356 357
303 302 299 298 303 315 309 308 308 298 294 304 312 312 312 300 304 314 322 324 326 326 325 328 332 333 334 337 338 338 338 339 342 335 331 333 333 335 336 336 337 337 339 338 342 345 345 344 348 346 346 347 348 348 352 351 351 350 349 350 347 348 348 347 344 344 349 348 348 349 351 352 353 356 358 358 360 363 362 362 364 361 361 358 357 356 358 359 358 357 356 357 357 356 359 361 355
303 300 298 292 292 302 298 298 296 295 293 301 310 313 307 302 308 317 321 323 327 329 328 329 332 335 336 338 337 337 341 343 343 338 332 333 332 334 334 335 337 337 338 338 341 345 345 344 346 347 346 347 349 348 351 351 350 351 349 351 350 348 350 347 345 344 349 349 350 351 351 352 353 354 356 357 358 361 361 358 359 358 358 357 357 357 358 360 357 357 357 358 356 355 354 355 353
300 298 294 291 288 291 288 291 293 295 301 308 310 314 305 307 312 319 321 323 328 330 331 332 333 334 336 338 339 339 342 342 343 342 335 334 332 334 335 335 337 338 338 339 340 345 345 344 346 346 347 348 349 348 351 351 349 351 350 349 352 352 351 348 347 346 351 350 353 352 352 353 354 353 355 356 358 360 361 358 361 359 358 357 358 358 358 359 356 357 357 356 357 355 354 355 353
297 299 300 295 291 290 286 288 289 291 294 306 312 306 300 304 306 321 324 324 327 331 332 334 335 336 336 339 340 342 341 342 343 343 342 340 335 334 335 335 337 338 338 340 341 344 345 344 346 346 347 350 349 348 351 351 350 351 351 349 350 354 352 350 349 350 351 350 353 353 352 354 355 354 355 357 359 358 360 359 360 359 358 357 359 359 363 360 359 358 358 358 360 358 359 356 354
299 301 301 297 297 296 290 291 291 294 297 302 304 304 308 308 319 323 326 327 327 330 331 333 333 334 336 336 337 338 340 342 344 344 346 346 345 344 338 336 340 340 340 342 343 345 345 344 346 346 346 350 350 348 350 351 352 352 352 350 350 354 357 353 353 356 353 352 353 354 353 354 354 354 357 358 358 357 358 358 361 358 358 357 359 358 358 361 358 355 356 358 353 363 357 358 356
298 301 296 297 302 301 296 300 299 299 300 299 307 306 310 315 316 320 326 325 325 328 330 330 330 332 333 333 335 336 339 341 340 340 341 341 338 341 342 344 343 340 340 342 344 346 346 345 346 347 346 350 352 350 350 352 352 352 352 352 351 352 355 354 353 355 353 354 354 354 354 354 356 355 357 359 358 357 358 358 359 357 358 357 358 358 359 360 358 356 357 357 355 356 355 353 356
301 297 297 302 306 303 295 290 292 289 290 298 304 302 304 305 301 316 321 324 326 327 328 330 330 332 333 334 335 337 339 340 342 340 342 342 342 343 345 345 345 346 341 341 344 346 348 347 347 348 347 348 352 351 351 352 352 352 352 352 352 352 354 354 354 355 355 354 354 353 353 354 353 355 358 360 358 358 358 364 358 359 359 358 358 360 360 360 359 357 357 358 357 356 355 357 359
301 299 305 303 294 295 295 294 289 288 293 296 300 303 304 304 304 314 318 321 323 325 326 325 325 328 332 334 334 336 336 336 338 341 342 343 343 342 342 343 346 346 348 344 345 347 349 349 349 350 349 349 352 353 352 353 353 353 354 353 353 352 353 353 354 355 356 354 353 353 352 353 354 354 356 357 357 357 357 360 356 357 359 360 359 360 361 359 360 358 357 358 358 356 354 354 354
307 306 299 302 297 294 294 293 293 295 292 296 298 301 299 308 309 315 317 318 320 320 319 320 324 329 331 331 332 331 332 333 336 340 341 344 344 344 344 344 345 346 347 347 347 347 349 351 351 351 352 351 353 354 354 353 354 353 354 354 354 354 354 353 352 352 353 353 353 353 353 352 351 354 354 355 356 355 357 358 357 356 359 359 359 360 360 359 360 359 359 358 357 355 355 355 355
299 297 296 299 299 299 296 299 295 293 295 296 296 293 298 308 315 315 316 319 320 321 318 320 323 325 326 328 330 332 333 334 337 340 341 343 345 346 345 346 346 347 350 349 348 349 351 354 353 353 352 351 353 355 356 354 355 355 355 354 354 354 354 353 352 352 352 352 352 353 353 352 352 350 351 354 354 354 356 357 357 356 357 358 357 357 358 358 359 358 357 357 356 355 354 355 357
298 297 295 294 296 294 291 289 297 301 298 293 296 291 301 313 321 318 318 320 321 320 320 320 321 322 324 325 325 326 327 331 340 341 342 341 344 345 346 347 348 349 349 348 350 349 349 351 353 353 352 353 353 354 354 351 347 343 343 344 346 348 350 353 352 351 352 351 352 352 352 351 351 351 350 354 353 354 355 356 356 355 356 356 356 356 357 357 357 357 357 359 358 355 354 355 354
Wind_Speed
7 5 3 3 1 0 2 1 1 1 1 0 2 1 3 2 1 1 1 2 3 3 8 6 7 5 6 3 10 8 10 8 1 5 4 2 7 12 7 10 9 8 7 6 4 4 5 6 9 10 11 10 11 11 11 11 11 11 11 12 12 13 13 13 13 14 13 13 13 12 12 12 11 11 13 13 13 14 15 15 15 15 15 14 11 11 13 12 11 12 13 14 15 16 16 16 16
5 5 4 2 1 1 1 2 2 2 1 2 2 2 4 3 1 2 4 5 2 2 9 8 1 4 15 15 9 9 10 8 1 6 4 7 10 7 9 11 10 9 7 6 5 4 4 4 9 10 10 11 11 11 11 12 11 11 11 12 12 12 13 13 13 13 12 12 12 13 12 12 12 12 12 13 13 14 14 14 14 15 15 14 11 12 13 12 11 12 14 13 14 15 16 16 16
6 5 3 2 1 0 1 1 1 1 2 1 1 1 4 5 1 2 5 1 8 10 9 8 9 4 8 6 7 5 2 6 11 9 8 10 13 6 10 10 9 9 8 5 5 4 3 4 8 9 10 11 11 11 11 11 12 11 12 12 12 13 13 12 13 13 12 12 12 12 11 11 11 11 12 13 13 14 15 13 12 14 17 15 11 14 12 12 11 13 14 14 14 15 16 16 16
6 4 5 1 1 0 0 1 1 2 1 1 1 1 4 4 2 4 3 1 7 4 2 8 3 6 8 10 10 13 8 6 3 11 10 8 6 11 11 11 9 8 6 5 5 3 3 7 7 9 11 11 11 12 12 11 11 12 12 12 13 13 12 12 12 12 12 11 11 11 11 11 12 11 9 12 14 14 14 13 14 14 18 15 14 14 13 12 13 13 14 14 15 15 16 17 16
4 4 2 2 1 1 1 1 1 1 0 1 2 3 4 3 5 2 2 3 3 2 2 4 5 5 9 9 3 3 5 8 8 4 8 7 11 11 11 11 9 8 7 6 5 4 4 9 9 11 11 11 11 11 11 11 12 12 12 12 13 12 12 12 12 12 11 11 11 11 12 12 13 12 12 13 14 16 15 15 15 17 19 16 16 14 13 13 13 13 13 13 14 16 16 16 16
4 2 1 1 0 0 0 1 2 2 1 1 2 1 2 5 7 6 1 1 1 4 9 1 7 5 6 6 4 6 10 7 8 6 10 10 14 14 13 11 10 8 7 6 5 3 4 10 11 11 11 11 11 11 12 12 12 12 12 12 12 12 12 12 11 11 11 8 8 11 11 12 11 11 11 13 13 13 13 14 15 16 15 15 15 13 12 13 14 13 12 12 14 15 15 15 15
3 3 1 1 1 0 1 1 3 1 2 2 2 3 5 5 5 2 2 1 3 7 8 11 17 15 12 6 10 6 8 9 7 9 9 14 15 14 13 11 10 9 8 6 5 4 5 11 12 12 12 11 11 11 11 11 12 12 12 12 12 12 12 12 11 10 10 8 7 11 11 11 11 11 11 13 14 13 13 13 16 16 16 16 15 13 13 12 13 14 13 13 13 13 13 14 14
1 1 1 1 1 2 2 2 4 2 2 4 3 8 6 6 8 1 5 3 3 4 6 7 4 16 9 4 7 6 8 5 12 14 16 14 15 14 12 11 10 9 8 6 5 4 9 12 12 12 12 12 11 11 11 11 11 11 11 12 13 12 10 11 12 11 10 13 9 9 12 11 11 11 11 12 13 13 13 14 16 16 15 15 14 11 12 12 13 13 13 13 13 13 13 13 13
1 4 1 0 1 1 2 3 3 4 2 5 2 4 7 6 6 5 5 2 4 8 13 13 8 19 4 11 9 7 9 13 14 16 16 16 15 14 10 11 10 9 8 7 6 3 4 12 12 12 13 12 12 11 10 10 10 10 10 11 11 11 10 11 11 11 8 12 12 11 12 12 11 11 12 13 13 13 13 15 17 17 15 14 13 9 12 12 13 13 14 13 13 13 13 13 13
1 1 1 0 1 3 2 2 2 1 2 4 5 4 4 6 7 2 2 3 4 10 7 10 5 18 14 15 12 7 8 14 16 16 15 15 14 12 12 11 11 11 9 7 5 4 4 12 13 13 12 12 12 11 11 10 10 10 10 11 12 12 11 11 13 13 13 11 12 12 11 11 13 12 12 12 14 13 13 14 15 19 18 16 14 10 12 12 12 14 14 13 13 14 14 13 13
1 1 1 0 1 3 2 4 1 2 3 4 3 2 4 2 2 2 2 4 3 10 14 18 14 15 11 8 7 8 13 15 16 16 15 14 12 13 12 11 10 10 10 8 6 4 5 6 13 13 12 12 12 11 11 10 11 11 10 11 13 13 9 9 12 12 12 11 10 12 12 12 13 13 12 14 10 13 14 14 14 17 18 17 14 12 14 14 13 13 13 12 12 12 11 12 13
1 1 0 1 1 2 2 3 0 5 3 5 2 3 1 2 2 6 3 11 11 14 14 3 6 14 13 9 5 11 14 13 13 14 14 13 11 13 12 9 10 10 10 9 7 5 5 5 6 11 13 12 12 11 11 11 12 11 11 11 12 13 13 10 11 11 11 11 11 12 12 12 12 13 13 14 14 13 14 15 13 14 17 17 15 14 15 15 14 14 14 13 11 10 10 11 11
2 1 2 1 2 1 2 2 2 6 5 4 5 2 2 2 5 7 3 10 9 11 3 6 17 6 11 10 6 11 14 13 12 13 13 10 12 11 10 10 11 10 9 7 7 6 6 5 5 5 9 13 12 11 10 11 11 9 11 11 13 14 12 10 11 12 12 11 12 12 12 12 12 13 12 13 14 14 15 15 15 15 17 18 16 15 15 15 14 14 13 12 11 9 8 8 10
3 3 3 1 0 1 2 1 1 3 3 4 2 4 1 2 4 4 1 6 3 3 8 12 8 14 14 12 8 9 10 13 13 13 10 13 12 11 12 10 11 9 8 7 6 7 6 6 5 5 6 5 4 8 10 11 12 11 12 12 13 13 12 12 12 12 12 11 11 12 12 12 12 13 13 13 14 13 13 14 15 15 14 15 14 14 13 13 13 14 14 12 11 10 8 9 9
3 1 1 1 2 0 1 1 3 2 4 6 4 3 4 3 4 2 2 7 6 6 8 8 13 8 10 16 12 11 13 14 14 13 13 13 13 12 12 10 9 9 8 7 7 7 6 5 5 4 4 4 4 3 3 7 10 11 11 12 12 13 13 12 12 11 11 11 12 12 12 13 11 13 14 13 13 14 14 14 14 13 13 13 13 13 12 11 10 9 9 10 9 10 9 8 8
3 3 1 0 1 0 1 2 2 4 4 6 5 6 8 2 1 2 2 0 1 1 6 7 6 3 13 7 14 17 18 16 15 13 14 15 12 11 10 10 8 8 6 7 7 6 6 6 4 4 4 4 3 3 2 4 8 11 12 12 12 12 12 12 12 11 11 12 12 12 13 10 9 9 13 10 13 14 13 10 13 13 13 12 12 11 10 9 8 8 7 6 6 6 6 6 5
2 1 0 0 3 1 2 2 6 5 6 5 5 6 7 3 2 2 3 2 3 6 6 4 3 12 9 11 16 19 19 16 14 15 14 12 10 9 8 7 6 6 6 6 5 6 6 6 5 4 4 4 4 3 3 3 5 10 9 11 13 12 12 12 12 12 11 10 10 11 9 4 4 3 5 5 11 8 11 12 12 12 11 11 11 10 8 7 7 6 6 5 4 4 3 4 5
1 1 1 2 3 1 3 5 5 5 9 9 6 4 10 7 3 2 2 7 2 8 6 9 13 10 13 15 16 17 17 17 16 16 13 11 9 9 8 7 8 7 7 6 6 6 6 5 6 4 4 3 3 3 2 3 3 5 4 4 4 7 10 8 6 4 6 3 8 5 3 3 4 4 4 7 4 6 8 12 11 11 11 10 10 8 7 6 6 5 4 3 3 2 3 3 2
3 1 1 3 2 1 8 3 7 10 6 10 7 5 9 8 9 3 7 4 7 10 11 11 14 16 15 15 15 16 17 17 17 15 14 14 12 12 9 8 8 8 6 6 6 7 5 5 5 5 4 3 4 3 3 3 3 3 3 3 3 6 6 5 3 4 3 3 3 2 2 3 3 3 3 4 4 10 8 11 11 10 10 10 9 8 7 6 5 5 4 3 3 4 3 3 3
5 3 2 4 3 2 6 9 9 5 13 10 8 6 8 10 4 3 6 9 7 14 13 14 17 19 18 16 15 15 15 16 15 14 14 14 13 12 11 10 8 7 8 7 7 6 6 6 6 5 5 4 4 4 4 4 3 3 3 4 4 3 3 3 3 3 3 2 2 2 3 3 2 2 9 11 8 4 6 10 11 10 9 8 7 4 5 6 5 4 3 3 4 3 3 3 3
2 2 3 3 4 3 5 7 7 10 8 10 9 6 9 7 5 3 11 11 7 9 12 18 21 21 20 19 17 15 15 15 14 13 14 13 12 10 10 9 9 8 7 7 6 7 7 6 5 6 6 4 4 4 4 4 3 3 3 4 3 3 2 2 2 2 2 2 2 2 2 2 3 4 4 4 4 4 4 4 3 3 3 3 5 2 2 2 3 2 3 3 3 3 4 4 2
4 7 6 4 3 6 9 9 11 10 10 7 7 11 8 11 5 3 7 11 10 10 13 17 20 21 21 20 18 15 16 15 15 14 13 14 15 12 9 7 7 7 7 7 7 8 7 6 7 6 5 4 5 4 5 5 5 4 3 3 3 2 3 2 2 2 2 2 2 2 2 4 4 4 3 3 3 4 3 4 2 2 2 2 1 1 1 1 1 1 2 2 3 3 3 3 3
4 5 6 5 4 8 7 12 10 10 9 11 9 5 6 7 9 5 4 6 6 6 12 18 20 21 19 18 17 16 16 16 15 14 13 14 14 12 11 10 10 8 7 7 7 6 6 7 6 6 6 5 5 4 4 4 4 4 4 3 3 3 2 2 2 1 2 2 1 1 3 3 4 3 3 2 3 2 2 2 2 1 1 1 1 1 0 1 1 1 2 2 3 3 4 4 5
4 5 7 7 9 11 12 11 11 7 10 9 6 6 4 10 10 4 5 2 5 6 13 19 19 19 18 18 17 18 16 16 15 14 12 14 15 13 13 12 9 8 7 8 7 7 6 7 7 6 5 6 5 5 4 4 3 4 4 5 3 3 3 3 2 2 1 1 0 0 2 3 4 4 2 2 2 2 2 2 1 2 0 1 0 0 0 2 2 3 2 3 3 3 4 5 5
8 2 8 8 10 12 11 11 8 10 6 8 9 8 6 4 5 3 3 5 7 8 15 19 19 18 17 17 17 17 15 14 14 13 10 10 10 13 12 10 10 9 9 8 7 8 7 7 7 6 5 6 6 6 5 4 4 4 3 3 4 4 3 3 3 2 3 1 0 0 3 3 3 3 2 1 1 2 1 1 1 0 0 1 0 1 1 2 2 2 3 3 3 3 4 6 5
11 6 6 10 12 13 12 11 9 8 6 8 10 6 6 8 8 8 5 4 6 11 16 19 20 18 18 17 17 15 15 15 13 14 13 10 10 15 12 11 11 10 10 9 9 7 7 7 8 7 6 6 6 6 5 4 5 5 4 4 4 3 3 3 3 3 2 2 2 1 2 3 4 4 3 1 1 1 0 0 0 1 1 1 0 2 2 2 3 3 3 4 4 4 4 5 2
11 4 9 12 14 13 12 11 9 7 7 7 10 7 6 5 2 3 2 6 4 16 18 16 18 18 18 16 15 15 16 15 15 13 12 10 12 12 12 12 11 10 10 9 9 8 7 8 7 7 5 5 6 6 5 5 5 5 5 4 4 4 3 4 4 3 3 2 2 1 3 4 4 3 3 2 1 1 1 1 2 2 2 2 1 3 2 3 3 3 4 4 4 5 3 2 1
6 6 9 11 12 10 5 9 8 8 7 4 9 8 5 5 5 4 6 7 5 17 18 17 16 17 16 18 16 14 13 14 13 12 14 14 10 11 12 11 11 11 11 10 8 8 9 9 8 7 6 5 5 6 5 5 4 4 4 5 5 4 3 4 4 4 3 2 1 2 2 3 4 3 4 3 3 2 2 2 2 2 3 2 2 3 4 3 3 2 3 3 3 2 1 2 2
13 13 10 12 12 9 1 4 10 7 6 6 9 11 5 9 3 6 4 8 6 2 16 17 17 14 14 16 14 13 12 13 11 11 12 11 10 10 12 12 12 11 8 10 9 10 10 9 8 8 7 5 5 6 6 5 4 4 4 4 4 5 4 4 4 4 4 2 2 2 3 3 4 5 4 4 2 3 2 1 2 2 3 3 3 3 2 1 2 2 2 3 2 0 1 1 2
16 10 12 9 5 2 8 2 7 5 5 9 3 6 5 5 5 5 6 11 9 4 2 18 13 13 14 12 12 11 11 11 12 9 11 10 11 11 11 11 12 10 9 8 10 11 9 7 7 7 7 7 6 6 5 5 5 4 4 5 4 5 4 4 4 4 3 3 2 3 3 3 4 4 3 2 2 2 2 2 2 3 4 3 2 1 1 1 2 3 3 3 4 3 3 2 1
10 9 10 8 8 4 9 7 9 7 6 9 1 6 5 4 4 4 5 6 14 10 3 8 12 14 13 12 11 10 11 11 12 11 13 13 11 11 12 10 11 10 9 9 12 11 9 8 7 7 8 7 7 6 6 6 5 4 4 4 5 5 4 4 4 3 3 3 3 3 3 3 3 3 2 2 2 2 2 2 3 4 3 2 2 1 0 0 1 2 2 3 3 3 2 2 0
10 7 1 4 8 5 9 7 12 11 5 7 3 3 6 5 7 8 5 5 9 10 10 8 12 12 14 13 12 10 11 11 12 15 16 14 12 11 12 11 10 11 12 11 11 10 10 9 8 8 9 8 6 7 6 6 6 5 6 6 5 4 4 4 4 4 3 4 4 4 3 3 3 3 2 2 3 3 3 3 4 3 2 1 1 0 0 1 1 2 2 1 3 4 5 4 2
8 6 8 8 5 9 5 9 11 10 12 5 3 4 6 1 4 6 9 8 7 9 9 12 9 14 15 12 10 11 11 10 12 14 14 13 12 12 12 12 9 12 12 12 11 10 10 10 9 10 10 9 7 7 5 4 4 5 6 7 7 6 5 5 4 4 4 4 4 4 3 3 3 3 2 2 3 3 3 4 3 2 1 2 1 0 1 1 1 2 1 0 1 1 2 3 3
3 2 8 8 13 9 6 7 8 6 13 6 4 6 2 7 10 8 9 11 13 8 11 8 8 12 13 11 11 12 11 10 13 13 15 13 11 13 13 12 10 12 11 12 12 11 11 9 8 9 8 8 7 7 5 5 5 6 6 6 6 7 6 5 5 5 5 4 4 4 3 2 3 3 2 2 3 3 3 3 2 1 0 1 1 2 2 1 2 0 2 1 0 1 1 2 1
8 4 8 6 6 18 12 12 9 11 6 8 5 6 8 10 11 9 8 9 11 10 10 8 9 10 12 12 11 11 10 10 13 13 15 14 13 14 12 13 12 12 10 12 11 10 9 8 8 8 8 8 7 6 5 4 5 4 5 5 6 6 5 5 5 5 5 5 4 4 3 3 3 3 2 2 3 3 2 1 1 1 1 2 2 1 1 1 1 2 2 3 2 1 1 1 3
1 2 1 7 8 7 7 4 9 15 10 7 10 8 10 11 13 9 9 9 11 11 6 6 6 8 13 11 10 11 9 10 11 13 13 12 12 13 11 12 12 9 11 12 11 9 9 9 7 6 7 8 6 5 5 5 5 5 5 4 5 5 5 5 5 5 5 5 4 4 4 3 3 2 2 2 3 2 2 1 2 2 2 2 2 1 0 1 0 2 3 2 4 4 1 2 1
5 6 2 8 6 4 4 5 11 11 7 5 7 6 8 9 10 10 9 10 8 9 10 8 7 6 9 10 10 12 10 11 11 13 11 13 14 13 12 12 10 10 12 12 11 10 11 10 9 8 6 6 6 6 6 6 5 4 3 5 5 4 5 5 5 5 5 5 4 4 4 3 3 2 2 2 3 1 1 1 2 1 1 2 1 0 0 1 1 0 2 1 3 4 1 3 1
4 4 4 5 10 9 11 12 13 10 6 4 2 8 7 9 8 6 6 11 11 11 9 7 7 6 9 10 11 12 10 7 12 10 10 13 13 14 12 11 10 12 11 13 12 11 10 11 10 8 6 7 6 6 6 6 4 5 4 5 4 4 5 5 4 5 5 4 5 5 4 3 3 2 2 2 2 2 2 2 2 2 2 2 1 0 1 0 1 2 3 3 2 1 1 1 2
4 7 4 2 5 8 7 9 10 8 4 4 7 8 4 6 7 7 6 6 6 4 3 1 3 7 5 10 12 11 8 10 13 10 11 13 15 16 12 10 11 14 14 13 12 11 10 10 9 8 7 7 6 5 5 5 3 4 4 3 5 3 2 4 4 4 5 5 5 5 4 4 3 2 2 2 2 1 2 2 2 2 2 1 1 0 1 0 1 1 1 1 4 2 1 2 2
6 4 2 4 12 13 5 9 12 5 1 7 7 9 3 2 3 7 4 3 5 5 3 3 7 5 7 9 13 11 10 12 14 10 13 14 15 14 12 11 10 11 12 11 11 12 10 9 9 9 8 7 6 4 5 4 5 5 4 6 5 6 4 3 3 3 4 4 4 4 3 4 3 3 2 2 1 2 2 2 1 2 1 1 2 1 0 1 1 1 0 0 1 2 2 1 0
6 5 3 7 13 13 19 12 11 9 6 6 11 7 2 0 2 3 4 5 2 3 6 3 3 6 6 1 2 7 12 12 14 10 13 14 14 14 14 12 11 12 12 12 11 10 8 11 10 10 8 8 6 5 5 4 5 4 4 4 3 3 3 4 4 2 4 4 4 3 4 3 3 3 3 2 2 2 2 2 3 2 1 1 1 2 1 2 1 2 2 1 0 0 3 1 1
5 6 8 14 11 6 4 16 14 4 5 6 12 5 2 2 4 6 6 5 6 3 5 7 6 3 6 4 4 2 5 11 14 11 15 15 15 13 12 13 13 12 12 12 11 10 10 9 9 9 8 8 8 6 6 5 5 6 6 7 6 5 5 5 6 6 5 5 6 4 3 4 4 3 3 3 3 3 3 3 3 3 2 2 2 2 1 1 2 3 3 2 1 1 1 2 2
6 6 12 11 13 13 9 16 10 7 9 13 10 6 2 1 6 6 8 7 8 6 6 5 5 5 5 6 4 3 6 10 12 10 14 14 14 14 13 13 13 13 11 10 9 9 11 9 9 10 9 8 8 7 6 6 5 4 6 7 7 7 8 5 4 6 6 6 5 5 5 4 4 5 4 4 3 3 3 3 3 3 3 3 2 2 1 2 3 3 1 2 1 1 2 2 1
6 5 16 13 17 16 18 17 11 3 3 6 9 1 7 4 9 6 9 9 9 9 8 7 6 7 9 8 6 4 5 9 12 12 14 15 15 16 16 15 13 13 11 10 9 9 11 10 10 9 8 8 8 7 6 6 7 5 6 6 7 7 8 7 6 6 6 6 5 6 5 5 5 5 5 4 4 4 4 3 3 2 3 3 2 2 3 3 3 2 2 2 0 2 2 2 1
6 3 12 16 19 18 20 13 6 3 10 10 8 4 5 1 1 6 8 9 12 14 13 13 11 11 10 9 8 6 6 7 12 12 15 15 15 15 14 14 13 13 12 12 10 10 10 10 10 9 9 9 8 7 7 5 6 6 7 7 7 6 7 7 6 6 6 6 6 4 5 5 4 4 5 6 5 4 4 4 3 2 3 3 2 2 2 2 2 2 2 1 1 0 1 1 0
9 5 9 11 14 18 18 10 5 6 7 8 11 8 5 1 1 5 6 7 11 15 15 14 14 13 12 11 6 6 9 4 8 13 14 15 15 15 15 14 13 13 12 11 10 10 10 9 10 11 9 8 8 7 7 6 5 5 6 6 8 6 5 6 6 6 5 5 6 6 5 5 4 3 4 5 5 5 4 3 3 3 3 3 2 3 2 2 2 2 2 3 1 0 0 1 1
3 3 3 6 13 7 7 6 2 4 1 8 14 12 7 4 7 9 12 13 17 12 9 11 13 14 14 13 12 7 10 9 6 9 12 15 14 15 14 15 14 13 11 11 10 11 10 10 10 11 11 8 8 8 7 7 6 5 6 6 7 6 5 6 6 5 5 4 6 6 6 6 5 5 4 4 4 5 4 3 4 4 3 3 2 2 3 3 3 3 3 2 1 2 1 1 1
5 2 2 5 5 7 6 2 5 3 4 8 12 13 7 7 4 8 13 1 10 15 17 18 18 20 19 16 13 14 14 11 6 9 10 14 13 13 14 14 14 14 13 12 11 11 11 11 11 11 10 8 8 8 7 7 6 6 5 5 6 5 5 5 6 6 5 7 7 7 6 5 5 5 4 4 4 4 4 4 3 3 3 3 3 3 2 2 2 1 1 2 2 2 0 0 0
3 3 5 6 2 5 6 5 4 5 6 9 14 10 1 3 4 12 16 8 9 10 12 16 15 11 9 10 12 13 12 9 7 8 11 13 14 14 14 14 14 13 13 14 14 13 13 12 13 13 12 10 9 9 8 8 7 6 6 5 5 4 5 5 5 5 4 6 6 6 6 6 5 5 5 5 4 5 4 4 3 4 3 3 3 2 1 1 1 2 3 2 2 3 2 2 1
3 4 5 5 5 7 7 5 2 4 4 2 11 8 2 2 3 6 12 9 9 10 9 9 11 15 15 12 11 11 9 9 7 7 11 11 14 14 14 13 14 14 15 15 14 13 12 12 13 14 13 12 10 9 9 8 8 7 6 6 5 5 5 5 5 5 5 5 6 7 7 7 7 7 6 6 6 5 5 5 4 4 3 3 3 3 2 2 2 3 3 2 2 3 2 2 3
5 5 8 6 6 4 4 5 9 8 4 3 8 11 3 4 2 5 13 6 7 9 8 7 8 9 11 10 10 6 4 4 6 6 6 9 11 14 13 12 13 13 14 12 12 12 12 13 13 14 12 11 11 11 9 10 8 7 6 6 6 5 6 6 6 6 6 5 4 6 6 6 6 6 6 6 5 5 5 4 5 4 4 3 3 3 2 2 2 2 2 2 1 3 3 3 3
2 2 6 5 5 6 5 7 7 4 8 7 3 0 2 2 3 4 4 6 6 8 7 7 7 7 8 8 9 8 6 4 4 5 5 6 9 2 4 8 9 10 13 9 11 11 11 12 13 14 14 13 12 11 10 10 9 8 7 6 6 5 4 5 6 5 5 6 6 6 5 5 5 5 5 5 5 5 6 5 4 5 4 4 3 3 2 2 2 2 1 1 1 1 2 2 3
2 1 2 4 4 6 1 1 3 8 8 2 0 2 3 1 3 8 4 9 8 9 8 8 7 8 8 8 8 7 5 4 6 6 4 11 13 10 10 8 2 9 12 11 11 11 12 11 12 13 12 11 12 12 11 10 9 8 8 7 6 5 5 5 7 6 6 5 5 5 6 5 4 5 5 5 6 5 6 6 5 5 5 4 4 3 3 3 3 2 2 2 3 2 0 3 2
1 1 6 4 3 4 5 4 1 3 6 1 2 3 4 2 3 2 2 6 7 9 7 8 7 7 7 4 3 3 5 9 8 6 6 13 14 6 2 5 9 8 9 12 11 11 11 11 12 12 11 12 11 11 11 10 9 9 7 7 6 6 5 5 5 6 5 6 4 4 4 4 5 5 5 5 6 6 5 6 5 5 5 4 4 4 3 3 3 3 3 3 3 2 3 3 3
2 2 2 1 1 2 3 4 2 4 2 3 1 2 0 2 2 2 3 6 8 9 9 8 8 6 5 6 7 9 9 10 9 8 8 7 9 11 11 10 8 5 4 7 11 11 10 10 10 11 13 13 13 11 10 9 9 7 6 7 7 5 5 4 3 4 4 6 6 6 5 5 5 4 4 4 5 5 5 6 5 5 5 5 5 5 4 3 4 4 3 4 3 2 3 3 4
1 2 4 0 3 2 4 3 4 8 4 5 1 3 3 1 1 3 6 9 10 7 9 10 9 9 7 6 6 8 7 7 6 9 10 9 9 10 10 10 8 6 7 7 9 8 10 10 11 10 8 8 7 8 9 9 8 6 5 4 4 5 5 5 4 4 5 5 6 6 6 5 6 5 5 5 5 5 6 6 6 6 6 5 6 5 5 4 4 4 4 4 4 3 3 4 4
2 4 1 1 1 2 2 0 2 6 7 5 7 1 3 2 2 6 5 9 8 1 9 8 9 10 9 9 7 6 7 8 7 7 7 9 7 7 7 4 7 8 4 3 4 8 8 6 8 9 10 9 8 8 8 6 5 3 3 3 4 4 5 5 5 5 5 5 5 5 6 6 5 5 5 5 6 6 6 7 7 6 6 6 6 6 5 5 5 5 4 4 4 3 4 4 3
2 2 4 5 1 1 2 4 4 4 7 5 6 2 1 2 2 7 12 9 8 7 11 10 10 10 10 10 11 10 9 7 5 6 4 7 7 5 2 2 2 2 3 2 1 2 3 5 5 5 5 4 0 4 6 10 14 13 11 10 9 8 5 2 6 6 6 6 6 6 6 5 6 7 6 6 7 6 6 7 7 7 6 7 7 7 6 5 6 5 5 5 5 4 4 5 3
Wind_Direction
137 112 121 140 106 84 98 265 46 353 329 346 310 141 109 334 47 128 166 63 109 163 178 252 135 232 233 140 115 98 32 133 23 150 193 142 129 134 141 132 135 131 129 139 154 141 150 175 142 133 126 122 121 114 107 107 110 116 116 113 108 105 102 100 99 101 102 102 102 101 105 108 112 116 118 116 119 116 114 111 112 110 107 103 111 107 99 97 91 103 106 110 113 114 114 115 115
129 125 139 130 121 223 29 299 99 304 216 323 253 101 120 131 97 227 177 188 126 167 166 192 55 235 107 112 136 91 27 25 320 110 72 111 115 121 140 138 140 134 134 145 144 148 168 182 138 134 129 126 120 113 113 118 123 122 117 113 110 108 106 104 103 102 100 100 102 105 107 109 113 112 116 115 114 115 111 110 115 115 111 109 110 112 114 113 111 109 106 106 111 114 114 113 114
138 136 117 113 53 129 69 330 10 236 340 312 270 97 75 120 202 3 272 28 34 328 118 123 119 245 100 115 73 70 82 51 91 92 101 127 118 150 141 138 133 130 138 146 145 153 174 167 138 136 131 128 123 121 124 125 124 119 114 113 110 106 104 101 100 98 99 99 102 105 109 109 110 113 116 115 118 114 116 115 116 122 118 112 125 117 115 117 119 116 115 120 116 114 116 116 114
141 148 132 145 41 220 97 124 231 331 316 275 297 59 110 119 162 205 263 284 118 88 359 136 132 300 111 75 102 81 86 105 49 127 126 148 138 143 138 134 129 130 136 141 144 144 155 143 139 138 131 127 127 128 128 124 119 115 109 108 106 105 104 102 100 99 100 105 109 111 113 114 112 110 113 121 118 117 121 134 138 122 107 135 145 126 131 125 120 119 118 116 118 119 116 117 117
123 148 156 200 291 20 90 258 159 192 261 7 323 85 141 149 129 286 280 276 134 158 310 149 112 62 82 102 135 109 140 100 98 66 113 106 128 135 133 130 130 135 138 138 132 133 140 140 144 136 131 130 128 126 121 120 118 114 110 108 108 109 107 106 106 106 101 107 113 115 117 115 117 122 128 124 125 130 136 134 131 123 135 136 123 128 126 123 122 117 117 117 119 116 118 118 117
86 78 206 133 50 340 265 282 223 226 106 177 333 193 158 131 158 207 75 296 257 230 219 170 114 131 59 36 26 99 134 130 132 97 118 135 136 134 133 135 136 137 136 128 127 125 137 148 140 135 133 130 129 125 122 121 117 113 113 113 112 109 107 105 97 96 99 102 103 114 111 110 112 114 118 119 121 121 123 121 114 114 117 118 116 119 122 125 125 121 118 120 119 118 118 117 117
133 92 344 77 246 128 227 287 302 284 293 212 117 154 138 106 51 356 143 201 359 93 101 107 114 103 81 101 75 60 72 109 113 125 126 137 132 133 137 137 135 134 131 128 128 138 155 146 141 137 133 130 130 127 124 119 116 115 115 113 110 103 104 108 106 107 109 99 106 113 111 114 117 116 117 118 116 116 117 115 113 115 114 114 115 121 121 121 122 124 126 124 118 116 115 116 117
40 139 171 170 228 186 201 209 228 153 170 58 166 124 145 123 133 39 313 110 162 110 122 111 113 87 77 5 101 95 94 49 108 119 127 131 133 136 137 135 131 131 129 126 134 146 147 145 141 137 133 133 128 123 119 115 112 112 111 109 107 109 113 114 111 112 123 125 130 118 115 114 115 118 115 113 117 122 120 117 114 115 116 116 116 123 118 120 120 121 121 122 122 123 122 120 119
333 84 295 113 260 203 298 273 258 170 131 140 88 112 126 127 135 143 243 290 106 91 93 113 119 96 120 91 79 94 89 110 115 122 127 132 136 139 135 133 132 131 128 131 136 146 141 146 141 136 134 129 125 119 115 112 110 112 114 114 115 119 126 121 118 126 140 131 128 117 111 110 110 112 114 116 117 121 122 123 122 115 111 112 117 119 119 123 120 118 119 118 120 123 123 123 119
113 251 198 172 257 290 255 257 212 201 124 76 98 125 118 129 154 193 212 78 111 105 87 62 54 108 116 100 106 106 120 125 126 125 132 137 137 135 128 129 132 132 128 132 136 152 143 147 139 136 133 128 123 120 117 116 117 116 121 123 129 125 119 130 135 139 130 111 111 108 108 111 111 109 114 119 120 120 122 119 117 120 124 127 128 134 127 121 118 120 119 121 124 123 119 118 118
148 15 189 74 301 282 294 311 200 129 125 78 107 72 60 143 122 67 8 104 114 100 99 105 87 107 107 84 71 111 125 132 135 136 140 138 135 125 124 126 129 128 132 134 145 154 144 142 139 135 131 126 122 121 124 126 124 128 128 130 124 117 128 119 121 115 111 112 109 109 110 111 109 111 112 109 108 119 121 117 117 119 123 126 132 143 130 124 124 120 122 124 122 112 109 114 116
297 185 134 45 268 268 282 304 138 95 76 126 85 329 250 89 18 80 341 111 114 116 128 158 130 120 91 108 121 140 134 139 137 137 138 137 122 125 125 125 124 126 130 140 150 138 139 141 132 135 130 129 130 132 133 134 132 136 132 133 123 127 124 132 120 116 113 112 112 109 107 106 108 109 109 112 124 123 119 121 122 124 124 127 138 135 131 130 128 128 126 128 122 110 109 109 112
181 150 96 157 241 253 271 255 138 125 138 102 150 199 353 91 88 116 194 110 119 129 92 96 137 121 114 119 140 137 144 144 142 140 139 128 125 125 124 126 125 130 141 142 138 138 129 122 125 128 136 135 136 134 135 132 120 131 130 129 130 122 122 125 123 117 116 116 112 110 108 108 110 109 110 114 116 119 121 124 125 124 122 127 139 133 126 127 127 123 121 123 117 110 112 122 122
149 184 132 251 324 246 280 54 96 132 114 131 115 150 58 74 26 9 278 99 77 84 117 136 117 109 101 116 140 148 145 151 144 141 136 123 125 127 128 129 131 132 139 143 137 133 127 129 127 131 130 126 126 133 136 133 137 140 132 127 121 122 131 129 121 119 119 116 113 108 109 110 109 110 111 113 113 113 120 119 118 118 120 124 121 122 123 123 127 131 133 136 134 139 148 137 124
137 178 95 180 277 258 35 199 188 125 117 138 195 157 108 44 89 332 25 106 83 108 115 91 128 96 169 152 154 162 153 154 146 144 128 125 125 128 132 131 127 133 140 144 137 132 128 127 127 109 110 110 102 105 117 132 143 132 128 130 125 126 127 126 122 122 121 117 111 109 108 105 108 110 112 114 115 116 115 114 116 117 120 120 121 122 123 123 125 126 128 130 136 139 139 134 132
145 117 104 60 278 150 159 114 309 141 129 172 148 127 105 118 17 145 225 80 134 344 135 149 217 98 150 142 147 147 149 147 149 141 128 125 129 130 128 127 131 136 140 145 141 134 127 125 121 118 116 115 120 113 115 137 137 133 132 130 129 128 128 125 123 120 121 116 109 103 97 92 91 103 105 109 112 112 112 114 116 117 118 118 120 123 124 126 128 131 128 129 133 135 129 122 122
160 97 280 308 302 180 178 180 174 177 118 178 139 155 127 111 21 298 321 16 135 125 122 146 111 116 134 133 139 142 145 147 143 137 131 132 134 131 129 129 134 140 149 151 143 136 132 132 131 123 127 126 119 114 115 129 135 132 131 132 132 130 129 122 120 119 114 112 107 104 100 88 89 72 81 96 107 111 116 116 114 115 117 120 121 122 124 131 134 130 129 133 136 118 113 118 127
98 159 146 304 221 236 186 183 180 118 136 164 173 197 128 125 140 283 9 14 132 115 106 106 117 112 119 130 135 139 143 142 144 143 143 136 137 138 141 144 144 154 156 144 137 136 136 138 138 136 129 125 116 113 114 105 133 112 98 124 118 127 119 121 112 107 102 73 99 90 83 85 77 79 87 100 91 109 114 116 116 118 119 118 118 119 123 122 117 111 102 102 86 72 66 28 7
142 196 124 243 190 231 159 167 137 140 147 158 171 177 133 133 141 204 103 329 119 119 126 135 114 115 124 131 133 134 137 142 147 148 144 142 144 146 147 148 152 149 148 139 138 142 143 142 144 141 140 133 119 116 111 114 94 83 87 89 95 108 111 108 92 86 79 94 84 82 74 73 87 97 98 110 112 115 116 116 118 119 117 117 119 120 117 113 105 98 85 64 51 34 31 6 3
221 119 224 251 207 7 109 133 156 130 144 150 156 154 127 143 104 157 130 162 147 141 143 131 129 134 140 139 140 139 141 144 149 152 145 145 146 146 149 153 155 154 146 146 143 142 147 153 151 144 146 139 126 122 110 100 97 86 78 77 89 89 102 99 101 93 77 79 72 71 72 73 91 114 115 106 96 59 103 117 119 119 120 121 114 90 97 109 96 77 77 40 17 357 349 345 341
203 109 196 230 185 127 123 121 131 125 141 138 143 140 132 111 116 170 150 140 160 151 151 144 143 143 144 145 145 147 147 150 152 153 148 146 145 147 152 156 154 151 146 136 137 147 155 157 144 144 145 140 134 136 122 121 118 99 84 99 101 104 88 79 84 80 89 79 69 80 78 73 82 74 71 75 72 80 64 50 46 57 64 71 87 65 43 41 49 18 3 9 348 340 329 313 321
135 219 208 181 157 115 136 130 135 138 137 127 130 135 130 111 71 34 176 159 168 168 150 143 141 143 146 148 149 148 151 152 156 157 154 151 150 151 151 142 138 140 138 142 147 147 156 153 148 148 149 139 136 139 137 150 139 133 125 132 124 112 110 108 92 83 93 103 86 69 65 83 74 76 70 78 84 89 87 93 78 59 59 54 47 57 41 54 8 4 345 316 293 302 299 290 299
194 267 246 174 160 126 133 136 146 139 141 135 145 123 118 135 138 149 248 169 158 159 143 139 142 144 146 145 146 150 152 155 160 162 157 151 153 154 148 147 148 148 151 147 144 149 151 150 151 151 152 136 135 135 142 132 141 143 140 143 140 148 123 119 127 108 119 124 71 54 109 84 82 85 80 74 81 76 83 104 95 79 101 71 43 62 330 273 254 268 253 262 275 276 284 285 279
192 218 209 174 142 135 141 141 146 139 139 139 122 130 102 137 128 164 187 131 128 148 141 133 138 138 143 147 151 151 155 159 164 164 162 156 158 154 150 150 150 144 142 146 149 151 156 154 155 155 153 141 140 146 148 147 143 146 162 162 137 157 133 137 136 155 139 106 94 248 132 115 113 107 100 101 120 96 98 84 80 67 55 87 10 100 295 274 255 250 262 270 280 273 268 268 257
216 250 194 159 135 136 136 138 145 141 119 120 129 124 137 125 114 151 103 121 120 131 134 133 139 141 145 148 150 153 156 160 162 163 161 158 157 147 148 145 145 147 147 151 152 153 162 156 156 156 152 145 146 152 161 168 151 149 163 137 159 161 125 139 152 156 168 163 265 292 155 122 116 125 141 134 70 84 63 42 57 63 354 292 25 305 256 272 268 269 283 289 273 266 256 268 253
217 221 182 149 132 141 134 141 148 133 131 144 124 121 114 111 77 34 347 143 124 133 133 137 142 147 149 152 155 156 158 163 163 164 166 166 148 146 151 151 150 153 154 151 154 160 161 160 163 160 152 145 150 157 164 165 166 159 171 155 174 154 152 136 143 158 162 161 240 287 188 149 152 157 154 136 118 167 63 1 339 254 228 259 239 273 267 249 266 284 285 292 281 271 270 241 163
194 177 155 142 133 133 146 142 137 137 140 152 129 125 117 108 98 158 231 336 99 139 141 145 148 152 154 155 157 161 164 166 167 167 165 163 146 147 153 153 157 155 151 152 157 159 160 165 165 163 151 145 149 159 164 167 165 169 169 156 163 158 169 145 151 152 160 181 217 243 170 154 151 150 149 157 157 184 190 232 262 269 272 259 230 255 277 254 260 268 264 267 292 280 282 315 4
110 132 125 116 109 67 59 129 134 138 149 164 117 97 88 74 62 16 25 16 296 141 148 149 157 157 158 157 160 164 167 167 169 171 161 160 155 147 153 158 159 154 156 156 154 157 160 165 163 162 162 154 157 164 167 174 172 166 162 153 159 165 163 153 151 155 170 180 158 126 148 150 145 147 156 164 173 185 203 214 267 283 265 278 240 250 267 233 224 238 248 249 243 305 312 355 295
119 130 99 65 80 104 262 275 155 162 137 138 124 91 62 46 93 80 70 98 315 145 152 155 159 161 156 158 161 167 167 169 166 161 159 157 155 149 151 158 158 157 161 155 153 156 161 160 159 163 163 166 165 173 178 182 174 167 159 159 162 165 162 156 152 165 170 170 138 143 146 147 149 151 174 177 170 187 196 231 275 270 267 267 250 242 241 340 8 344 342 345 330 7 0 338 326
129 126 117 80 51 48 193 146 230 136 123 159 155 137 159 128 159 162 131 131 151 149 194 160 163 160 155 162 162 167 166 163 165 155 153 155 157 156 153 155 158 157 156 156 155 159 159 157 158 160 166 172 179 176 173 180 189 174 159 163 162 163 161 162 164 157 161 146 142 159 150 148 148 157 157 188 155 178 209 226 257 268 259 253 222 163 119 31 2 6 323 342 338 348 330 328 13
133 121 120 140 130 215 195 179 200 125 176 180 90 148 163 170 147 108 79 145 156 162 105 205 161 160 162 166 166 170 168 164 163 146 152 157 158 159 158 159 155 149 153 156 162 162 156 157 160 165 169 174 181 178 179 188 187 169 168 166 167 165 161 163 165 155 142 144 153 156 150 151 153 153 162 164 206 202 216 240 257 251 250 233 174 190 132 307 9 325 338 349 337 353 331 304 172
133 111 102 163 150 186 205 212 164 154 205 214 62 115 155 169 155 122 119 105 152 163 145 295 175 168 163 167 168 172 166 165 157 152 157 160 156 158 162 165 156 147 159 161 160 160 155 157 164 163 167 173 180 181 186 188 183 167 175 167 161 160 157 170 173 162 149 159 168 160 158 156 155 166 183 182 196 208 207 219 236 241 198 175 212 254 142 340 353 326 326 349 15 344 4 328 359
168 124 168 167 165 153 151 220 182 183 153 195 216 140 101 338 195 122 116 101 150 151 150 218 212 167 164 168 170 169 162 163 157 157 161 157 158 158 162 166 159 153 157 158 160 158 154 163 164 160 169 173 177 184 185 184 162 159 161 159 161 159 165 174 167 153 150 164 172 156 155 160 156 186 212 199 199 208 202 207 220 214 165 174 231 323 33 357 18 334 309 350 104 311 3 328 335
228 143 163 181 159 153 184 167 192 177 155 181 192 132 163 143 148 137 129 134 132 148 177 215 257 164 169 166 167 167 164 160 163 163 163 162 160 158 162 164 157 153 156 156 160 160 159 166 160 162 166 169 173 181 170 175 157 150 144 147 153 159 164 163 160 153 156 161 164 163 166 163 168 205 207 194 189 198 194 187 210 220 111 55 31 27 340 330 44 95 9 317 126 95 326 342 321
182 182 146 182 171 167 161 171 183 162 176 141 144 119 132 145 134 129 139 142 131 147 181 200 248 179 168 165 165 168 167 162 168 169 164 164 161 160 159 161 159 155 150 155 158 157 155 159 153 157 160 168 172 164 157 160 140 126 125 132 135 146 148 153 153 152 155 155 166 171 165 174 180 179 164 178 163 163 150 165 166 141 107 92 59 31 13 354 343 21 33 325 346 277 253 263 258
159 82 103 132 158 195 178 159 150 160 152 148 156 156 148 154 141 128 128 151 136 135 171 222 248 210 166 167 166 171 172 166 166 169 163 160 159 157 159 160 163 148 145 153 156 155 155 154 151 146 157 162 153 145 144 137 133 134 125 108 116 132 141 148 157 158 154 158 162 163 164 166 172 158 157 145 131 133 128 166 130 114 116 90 75 60 1 319 13 0 347 345 351 343 355 100 24
319 314 116 170 150 112 121 150 167 152 98 160 160 133 143 154 148 139 129 140 138 150 171 200 222 197 178 171 168 175 169 172 167 165 155 155 155 154 157 158 153 144 145 151 155 158 158 156 150 155 161 151 143 145 147 146 142 133 118 145 146 157 158 157 157 159 163 167 157 153 157 163 169 165 132 127 129 118 130 129 92 75 90 108 115 156 209 271 277 90 329 343 11 10 329 335 54
270 281 265 157 162 185 169 156 168 161 143 145 104 132 142 147 138 136 126 148 158 173 178 200 194 190 179 176 168 168 168 161 168 158 148 151 151 153 154 155 143 147 151 153 158 161 160 154 153 156 155 151 147 156 161 142 145 162 153 169 148 151 159 162 164 163 166 163 157 152 158 164 168 162 145 134 115 109 119 110 118 146 124 128 168 343 7 312 357 14 26 0 13 348 291 292 304
242 231 256 125 168 84 91 137 159 160 65 140 144 129 131 136 134 130 162 160 162 144 163 163 203 179 180 176 167 161 157 163 167 161 147 151 151 154 155 154 156 152 154 156 157 155 156 153 150 154 159 151 149 158 157 148 138 155 151 165 150 157 185 174 166 153 157 154 162 155 155 159 159 152 163 150 132 116 132 135 144 156 155 140 94 30 32 15 349 3 48 70 333 323 282 280 276
233 251 92 162 150 143 161 169 163 127 150 170 144 112 95 57 91 116 110 79 109 127 88 36 333 271 181 181 170 164 158 164 168 164 152 152 153 156 155 155 157 152 152 153 157 156 156 152 153 152 158 151 147 167 172 164 154 165 170 154 161 153 173 168 144 120 133 141 162 159 156 155 165 163 173 171 131 135 144 164 144 153 173 139 137 120 39 260 333 307 337 230 115 333 338 315 274
243 222 169 150 170 178 156 170 153 86 59 121 103 75 37 56 131 131 176 127 98 117 129 119 294 302 298 329 186 171 162 169 166 163 151 153 157 159 160 158 154 156 159 159 160 161 160 159 157 155 157 160 159 170 183 177 171 145 165 130 123 96 84 123 120 130 155 168 157 173 182 168 170 179 179 181 169 161 159 157 161 185 172 161 130 147 208 236 297 296 269 354 123 247 317 309 323
262 223 175 180 167 58 111 145 148 109 122 201 147 73 292 226 204 184 163 140 160 141 153 199 196 259 304 272 223 180 189 169 168 165 157 159 159 157 157 156 157 160 163 163 160 160 155 160 156 153 156 163 171 178 185 173 186 168 148 144 148 153 160 154 166 172 171 172 186 190 178 178 178 184 188 194 182 164 170 188 173 174 184 189 180 185 225 320 322 324 276 212 234 230 192 43 349
208 247 181 153 124 136 165 158 137 146 172 196 229 112 218 354 225 191 175 170 173 154 181 181 194 214 245 259 241 198 194 173 167 161 155 159 160 157 162 162 161 163 166 158 157 157 155 157 158 157 160 169 178 186 187 168 185 176 164 167 163 166 168 197 177 170 171 184 171 181 191 187 186 184 190 193 189 183 175 186 192 180 191 197 206 140 194 242 254 255 211 184 183 125 119 76 29
224 236 169 148 145 159 175 173 169 113 59 144 201 95 133 199 236 194 178 177 174 180 186 185 201 215 219 242 241 222 217 181 167 163 163 162 163 163 167 164 163 164 161 158 155 157 159 159 161 163 164 172 184 184 193 180 180 175 166 170 170 170 173 185 181 177 178 170 174 188 183 193 191 190 185 189 190 187 176 189 192 177 181 210 216 188 210 238 271 276 169 192 159 118 117 108 358
221 217 157 160 159 169 175 176 155 148 126 169 213 128 68 251 264 136 162 178 192 200 188 186 193 199 205 231 251 234 235 203 171 166 169 166 166 167 164 166 165 157 159 164 159 164 162 160 163 164 167 173 187 184 185 190 179 173 170 165 166 179 176 179 181 177 177 172 176 184 186 197 193 190 184 181 187 191 189 185 181 180 183 210 216 205 232 230 217 181 163 176 159 103 113 155 90
242 183 126 172 171 166 174 172 150 145 106 183 208 175 116 243 206 139 181 201 204 201 191 189 189 191 196 207 242 320 299 252 187 172 170 170 168 167 166 162 162 164 163 163 156 158 160 157 163 166 172 176 184 182 181 185 180 162 165 169 160 169 172 170 168 177 173 170 181 181 190 195 193 189 190 179 178 190 194 180 179 185 192 210 212 204 207 211 218 221 203 188 199 0 4 133 231
226 112 148 122 157 188 162 156 126 38 95 211 201 192 137 170 207 192 176 211 197 181 187 195 189 190 196 196 191 179 251 255 200 180 172 173 169 164 161 165 167 165 164 159 157 161 164 164 164 172 177 175 176 178 175 181 179 167 164 174 167 165 174 161 162 177 160 158 182 184 181 196 183 187 183 193 181 182 184 180 185 192 186 199 213 193 193 223 212 207 208 180 168 217 237 35 19
202 176 149 95 51 130 78 351 246 123 247 235 206 193 161 147 235 220 227 7 176 178 189 188 192 192 190 190 183 184 210 233 201 171 174 170 168 165 164 166 167 168 166 165 160 164 169 171 168 173 178 178 173 173 174 177 178 175 159 164 177 172 168 168 175 181 172 170 179 179 180 176 187 179 185 182 195 191 181 185 196 191 187 191 213 209 205 249 204 208 213 174 198 219 183 88 152
162 143 70 130 173 141 166 203 192 203 194 225 204 175 255 279 229 214 196 201 180 190 191 192 185 187 191 186 182 186 201 202 182 172 173 171 171 169 169 168 168 167 172 174 168 170 172 173 173 172 182 180 178 173 176 176 178 181 169 167 175 177 172 176 183 180 174 167 172 165 165 178 175 174 190 186 200 195 187 192 198 194 197 211 218 187 216 253 177 194 203 209 193 186 208 212 286
112 161 134 122 145 169 181 208 180 220 269 137 143 157 213 277 292 176 185 185 178 181 194 191 179 182 187 185 184 186 190 183 168 168 172 175 175 173 170 168 171 173 177 178 173 172 173 176 178 178 181 182 178 177 176 175 183 185 181 173 176 172 185 181 189 185 180 172 170 166 170 174 176 186 184 194 197 189 191 194 189 198 200 203 198 207 200 207 177 194 180 180 224 239 237 225 238
212 147 151 173 144 156 185 177 175 193 182 116 111 154 241 153 251 309 163 151 161 171 176 175 179 186 184 177 180 186 191 180 164 153 154 165 179 176 172 169 172 175 177 175 175 175 174 177 179 182 179 181 178 181 178 178 182 184 186 184 183 171 182 183 192 189 177 168 180 168 179 173 174 192 189 197 191 187 196 189 187 190 200 201 190 206 199 204 201 198 167 177 216 231 231 241 258
280 165 88 113 218 136 161 192 149 162 113 104 347 1 326 166 264 330 66 120 143 158 158 151 165 157 163 171 184 193 194 179 149 100 81 64 34 42 168 161 152 163 169 168 169 170 178 181 182 183 181 181 181 181 184 181 182 182 183 187 194 185 183 178 180 181 185 176 173 172 185 189 190 179 198 187 197 184 193 195 189 192 192 191 195 202 206 195 208 203 200 202 229 238 221 215 239
269 111 182 207 181 115 113 185 119 97 73 42 5 63 4 270 349 10 47 128 145 150 147 151 154 157 161 177 182 195 199 187 103 97 126 69 57 45 63 51 80 171 165 164 163 172 180 181 184 186 185 180 181 184 184 182 180 178 187 188 191 191 185 181 176 177 181 188 176 176 176 195 200 182 184 194 193 190 192 189 190 191 191 190 194 201 206 202 197 217 209 234 242 292 259 254 266
132 85 243 278 129 117 124 179 352 86 108 140 58 148 166 132 197 335 346 98 115 121 129 134 141 150 167 164 157 125 70 46 93 124 72 92 111 109 73 133 163 187 185 165 166 173 180 180 184 184 184 184 187 183 182 182 180 182 182 188 190 191 190 194 178 174 174 174 192 186 171 181 205 202 188 191 186 188 192 188 184 193 192 190 194 195 193 199 191 212 224 228 235 232 265 290 279
139 195 230 133 259 256 311 103 152 93 71 107 11 302 126 353 202 149 184 115 110 106 104 102 96 83 81 74 67 68 58 60 54 82 89 105 128 154 175 190 185 168 165 189 173 177 173 178 183 184 187 189 185 183 182 182 180 182 182 186 186 188 187 191 191 180 166 173 188 191 191 196 205 212 205 195 189 187 186 191 184 189 193 196 198 197 192 189 191 202 212 234 253 230 237 268 279
15 51 2 217 111 164 152 206 162 111 158 115 208 23 189 277 235 177 77 40 359 16 63 64 64 74 70 66 71 71 70 81 102 126 157 166 161 178 179 176 166 168 188 199 193 180 176 176 177 183 188 187 183 186 176 176 177 176 176 171 182 185 187 186 191 184 178 182 190 190 199 199 204 204 207 199 196 194 189 189 192 187 193 199 197 204 190 186 190 206 198 212 239 223 233 249 270
311 33 316 346 23 214 119 25 124 147 152 156 138 139 274 306 222 111 103 108 121 108 87 74 75 74 66 61 59 82 110 120 137 160 168 145 144 166 184 162 171 177 157 150 210 192 176 157 171 179 179 181 183 183 174 169 150 147 143 170 188 186 191 194 198 189 193 193 189 192 196 202 198 205 195 195 203 201 196 194 191 189 193 198 201 204 199 185 188 208 214 213 228 218 231 245 248
133 155 218 170 139 24 135 258 350 77 114 155 146 180 297 331 356 140 131 137 127 116 107 94 86 82 74 69 60 54 59 64 103 140 124 115 135 148 109 82 99 88 107 135 220 173 153 134 98 65 43 27 76 43 48 53 51 34 27 27 22 9 345 284 205 196 203 206 204 196 196 189 196 210 191 194 197 201 197 196 193 191 194 196 201 206 202 188 198 204 217 214 218 218 224 241 237